Detroit Metro, MI

1:09 AM EDT on July 21, 2017 (GMT -0400)
Detroit Metro Wayne County

Weather History for KDTW - February, 2014

Change the Weather History Date:

Tuesday, February 25, 2014

  Actual Average Record
Temperature  
Mean Temperature 19 °F 30 °F  
Max Temperature 24 °F 38 °F 66 °F (1957)
Min Temperature 13 °F 23 °F -2 °F (1900)
Degree Days  
Heating Degree Days 46 35  
Month to date heating degree days 1107 931  
Since 1 July heating degree days 5085 4451  
Cooling Degree Days 0 0  
Month to date cooling degree days 0 0  
Year to date cooling degree days 0 0  
Moisture  
Dew Point 9 °F    
Average Humidity 68    
Maximum Humidity 80    
Minimum Humidity 55    
Precipitation  
Precipitation 0.01 in 0.08 in 0.91 in (1918)
Month to date precipitation 2.82 1.79  
Year to date precipitation 5.74 3.75  
Snow  
Snow 0.40 in 0.40 in 9.30 in (1965)
Month to date snowfall 23.1 9.2  
Since 1 July snowfall 78.9 32.9  
Snow Depth 12.00 in    
Sea Level Pressure  
Sea Level Pressure 30.11 in    
Wind  
Wind Speed 12 mph (WSW)    
Max Wind Speed 24 mph    
Max Gust Speed 30 mph    
Visibility 8 miles    
Events Snow    
T = Trace of Precipitation, MM = Missing Value Source: NWS Daily Summary

Daily Weather History Graph

Daily Weather History Graph

Search for Another Location

Airport or City:

Trip Planner

Search our weather history database for the weather conditions in past years. The results will help you decide how hot, cold, wet, or windy it might be!

Date:

Astronomy

Feb. 25, 2014 Rise Set
Actual Time 7:14 AM EST 6:18 PM EST
Civil Twilight 6:46 AM EST 6:46 PM EST
Nautical Twilight 6:14 AM EST 7:19 PM EST
Astronomical Twilight 5:41 AM EST 7:51 PM EST
Moon 4:12 AM EST (2/25) 2:20 PM EST (2/25)
Length of Visible Light 12h 00m
Length of Day
11h 03m
Waning Crescent, 18% of the Moon is Illuminated
Feb 25
Waning Crescent
Mar 1
New
Mar 8
First Quarter
Mar 16
Full
Mar 23
Last Quarter

Hourly Weather History & Observations

Time (EST) Temp. Windchill Dew Point Humidity Pressure Visibility Wind Dir Wind Speed Gust Speed Precip Events Conditions
12:53 AM 18.0 °F 7.7 °F 10.0 °F 71% 30.17 in 8.0 mi NNW 8.1 mph - 0.00 in Snow Light Snow
1:53 AM 17.1 °F 6.6 °F 6.1 °F 62% 30.18 in 9.0 mi NNW 8.1 mph - 0.00 in   Overcast
2:53 AM 16.0 °F 4.4 °F 5.0 °F 62% 30.18 in 10.0 mi WNW 9.2 mph - N/A   Overcast
3:53 AM 16.0 °F 7.4 °F 3.0 °F 57% 30.18 in 10.0 mi WNW 5.8 mph - N/A   Overcast
4:53 AM 16.0 °F 8.8 °F 6.1 °F 65% 30.18 in 10.0 mi West 4.6 mph - N/A   Overcast
5:53 AM 15.1 °F 6.4 °F 3.9 °F 61% 30.18 in 10.0 mi WSW 5.8 mph - N/A   Overcast
6:53 AM 14.0 °F 2.9 °F 3.9 °F 64% 30.19 in 10.0 mi SW 8.1 mph - N/A   Mostly Cloudy
7:53 AM 14.0 °F 2.9 °F 8.1 °F 77% 30.19 in 10.0 mi WSW 8.1 mph - N/A   Scattered Clouds
8:53 AM 16.0 °F 3.6 °F 9.0 °F 74% 30.19 in 10.0 mi SW 10.4 mph - N/A   Partly Cloudy
9:53 AM 18.0 °F 7.7 °F 9.0 °F 68% 30.19 in 10.0 mi WSW 8.1 mph - N/A   Scattered Clouds
10:53 AM 19.9 °F 7.9 °F 9.0 °F 62% 30.18 in 10.0 mi SW 11.5 mph - N/A   Mostly Cloudy
11:53 AM 21.9 °F 9.2 °F 10.0 °F 60% 30.16 in 10.0 mi SW 13.8 mph 18.4 mph N/A   Mostly Cloudy
12:53 PM 24.1 °F 12.0 °F 10.0 °F 55% 30.13 in 10.0 mi West 13.8 mph - N/A   Mostly Cloudy
1:53 PM 23.0 °F 11.1 °F 12.0 °F 63% 30.11 in 8.0 mi SW 12.7 mph - 0.00 in Snow Light Snow
2:53 PM 23.0 °F 10.6 °F 15.1 °F 72% 30.09 in 3.0 mi SW 13.8 mph - 0.00 in Snow Light Snow
3:53 PM 24.1 °F 10.6 °F 12.0 °F 60% 30.07 in 10.0 mi SW 17.3 mph - 0.00 in   Overcast
4:53 PM 24.1 °F 12.0 °F 12.0 °F 60% 30.06 in 9.0 mi SW 13.8 mph 20.7 mph N/A   Overcast
5:53 PM 23.0 °F 9.6 °F 12.0 °F 63% 30.05 in 10.0 mi SW 16.1 mph - N/A   Overcast
6:53 PM 21.9 °F 8.2 °F 10.9 °F 63% 30.05 in 5.0 mi WSW 16.1 mph 27.6 mph 0.00 in Snow Light Snow
7:53 PM 19.9 °F 6.7 °F 8.1 °F 60% 30.05 in 8.0 mi SW 13.8 mph 23.0 mph 0.00 in Snow Light Snow
8:53 PM 19.9 °F 4.8 °F 9.0 °F 62% 30.03 in 9.0 mi WSW 18.4 mph 23.0 mph 0.00 in Snow Light Snow
9:41 PM 19.4 °F 4.1 °F 12.2 °F 74% 30.01 in 2.0 mi WNW 18.4 mph 23.0 mph 0.00 in Snow Light Snow
9:44 PM 17.6 °F 3.2 °F 12.2 °F 79% 30.01 in 1.0 mi WNW 15.0 mph 23.0 mph 0.00 in Snow Light Snow
9:53 PM 18.0 °F 4.2 °F 12.0 °F 78% 30.04 in 1.0 mi WNW 13.8 mph - 0.00 in Snow Light Snow
10:04 PM 17.6 °F 2.2 °F 8.6 °F 68% 30.01 in 3.0 mi West 17.3 mph 25.3 mph 0.00 in Snow Light Snow
10:21 PM 17.6 °F 2.7 °F 6.8 °F 63% 30.02 in 8.0 mi West 16.1 mph 21.9 mph 0.00 in Snow Light Snow
10:53 PM 16.0 °F 2.3 °F 6.1 °F 65% 30.06 in 10.0 mi West 12.7 mph - 0.00 in   Overcast
11:53 PM 16.0 °F 1.1 °F 5.0 °F 62% 30.05 in 10.0 mi West 15.0 mph - N/A   Overcast